Regional Weather Roundup
Issued by NWS

Home | Current Version | Previous Version | Text Only | Print | Product List | Glossary Off
Versions: 1 2 3 4 5 6 7 8 9 10 11 12 13 14 15 16 17 18 19 20 21 22 23 24 25 26 27 28 29 30 31 32 33 34 35 36 37 38 39 40 41 42 43 44 45 46 47 48 49 50

000
ASUS43 KFSD 311410
RWRSD

WEATHER ROUNDUP FOR SOUTH DAKOTA
NATIONAL WEATHER SERVICE SIOUX FALLS SD
900 AM CDT TUE MAY 31 2016

NOTE: "FAIR" INDICATES FEW OR NO CLOUDS BELOW 12,000 FEET WITH NO
SIGNIFICANT WEATHER AND/OR OBSTRUCTIONS TO VISIBILITY.


SDZ001>005-009-010-012>017-311500-
NORTHWEST AND NORTH CENTRAL SOUTH DAKOTA

CITY           SKY/WX    TMP DP  RH WIND       PRES   REMARKS
BUFFALO          N/A     48  42  80 W29G38    29.83F
FAITH            N/A     50  38  63 W26G43    29.91F
MOBRIDGE       SUNNY     56  44  64 W15G23    29.82F
$$

SDZ012>016-024>037-041>051-057-063-072>074-311500-
SOUTHWEST AND SOUTH CENTRAL SOUTH DAKOTA

CITY           SKY/WX    TMP DP  RH WIND       PRES   REMARKS
RAPID CTY ARPT SUNNY     59  36  42 W20       29.98S
PIERRE         SUNNY     57  42  57 W17G26    29.92F
CUSTER         SUNNY     46  31  55 W22G41    30.02F
ELLSWORTH AFB  SUNNY     59  34  40 W24G33    29.97S
PHILIP         MOSUNNY   57  42  57 W10       29.95F
PINE RIDGE     CLOUDY    54  44  69 W14       30.06S
WINNER         FAIR      58  42  55 NW13      29.97F
$$

SDZ004>011-016>023-039-040-311500-
NORTHEAST SOUTH DAKOTA

CITY           SKY/WX    TMP DP  RH WIND       PRES   REMARKS
ABERDEEN       SUNNY     59  49  69 W16       29.84S
WATERTOWN      MOSUNNY   59  52  77 W17       29.86S
BROOKINGS      MOSUNNY   59  53  80 W17       29.88S
SISSETON         N/A     62  53  72 W17G26    29.80R
$$

SDZ017-020-022-023-036>040-048>070-311500-
SOUTHEAST SOUTH DAKOTA

CITY           SKY/WX    TMP DP  RH WIND       PRES   REMARKS
SIOUX FALLS    CLOUDY    61  55  81 NW12      29.92S
HURON          SUNNY     60  46  59 W18       29.90S
CHAMBERLAIN    SUNNY     59  46  61 NW12      29.96F
MITCHELL       SUNNY     61  51  70 W15       29.94S
YANKTON        MOSUNNY   61  50  67 NW23      29.93F
$$

ABBREVIATIONS USED IN REMARKS
   TC - TEMPERATURE IN CELSIUS
  WCI - WIND CHILL INDEX
   HX - HEAT INDEX
  VSB - VISIBILITY




USA.gov is the U.S. government's official web portal to all federal, state and local government web resources and services.